Year,Month,Day,Hour,Minute,Value (Times are PST for temperature in C)
2018,11,21,00,00,4.70
2018,11,21,00,01,4.70
2018,11,21,00,02,4.70
2018,11,21,00,03,4.70
2018,11,21,00,04,4.70
2018,11,21,00,05,4.60
2018,11,21,00,06,4.60
2018,11,21,00,07,4.60
2018,11,21,00,08,4.60
2018,11,21,00,09,4.60
2018,11,21,00,10,4.70
2018,11,21,00,11,4.70
2018,11,21,00,12,4.70
2018,11,21,00,13,4.70
2018,11,21,00,14,4.70
2018,11,21,00,15,4.70
2018,11,21,00,16,4.70
2018,11,21,00,17,4.70
2018,11,21,00,18,4.70
2018,11,21,00,19,4.70
2018,11,21,00,20,4.80
2018,11,21,00,21,4.80
2018,11,21,00,22,4.80
2018,11,21,00,23,4.80
2018,11,21,00,24,4.80
2018,11,21,00,25,4.80
2018,11,21,00,26,4.80
2018,11,21,00,27,4.80
2018,11,21,00,28,4.80
2018,11,21,00,29,4.70
2018,11,21,00,30,4.70
2018,11,21,00,31,4.70
2018,11,21,00,32,4.80
2018,11,21,00,33,4.80
2018,11,21,00,34,4.80
2018,11,21,00,35,4.80
2018,11,21,00,36,4.90
2018,11,21,00,37,4.90
2018,11,21,00,38,4.90
2018,11,21,00,39,4.90
2018,11,21,00,40,4.90
2018,11,21,00,41,4.90
2018,11,21,00,42,5.00
2018,11,21,00,43,5.00
2018,11,21,00,44,5.00
2018,11,21,00,45,5.00
2018,11,21,00,46,5.10
2018,11,21,00,47,5.10
2018,11,21,00,48,5.10
2018,11,21,00,49,5.10
2018,11,21,00,50,5.10
2018,11,21,00,51,5.10
2018,11,21,00,52,5.10
2018,11,21,00,53,5.10
2018,11,21,00,54,5.10
2018,11,21,00,55,5.10
2018,11,21,00,56,5.20
2018,11,21,00,57,5.20
2018,11,21,00,58,5.20
2018,11,21,00,59,5.20
2018,11,21,01,00,5.20
2018,11,21,01,01,5.20
2018,11,21,01,02,5.20
2018,11,21,01,03,5.20
2018,11,21,01,04,5.20
2018,11,21,01,05,5.20
2018,11,21,01,06,5.20
2018,11,21,01,07,5.30
2018,11,21,01,08,5.30
2018,11,21,01,09,5.30
2018,11,21,01,10,5.30
2018,11,21,01,11,5.30
2018,11,21,01,12,5.30
2018,11,21,01,13,5.30
2018,11,21,01,14,5.30
2018,11,21,01,15,5.30
2018,11,21,01,16,5.30
2018,11,21,01,17,5.40
2018,11,21,01,18,5.30
2018,11,21,01,19,5.40
2018,11,21,01,20,5.30
2018,11,21,01,21,5.40
2018,11,21,01,22,5.40
2018,11,21,01,23,5.30
2018,11,21,01,24,5.30
2018,11,21,01,25,5.30
2018,11,21,01,26,5.30
2018,11,21,01,27,5.30
2018,11,21,01,28,5.30
2018,11,21,01,29,5.30
2018,11,21,01,30,5.30
2018,11,21,01,31,5.30
2018,11,21,01,32,5.30
2018,11,21,01,33,5.30
2018,11,21,01,34,5.30
2018,11,21,01,35,5.30
2018,11,21,01,36,5.30
2018,11,21,01,37,5.30
2018,11,21,01,38,5.30
2018,11,21,01,39,5.30
2018,11,21,01,40,5.30
2018,11,21,01,41,5.40
2018,11,21,01,42,5.40
2018,11,21,01,43,5.40
2018,11,21,01,44,5.40
2018,11,21,01,45,5.50
2018,11,21,01,46,5.50
2018,11,21,01,47,5.50
2018,11,21,01,48,5.50
2018,11,21,01,49,5.50
2018,11,21,01,50,5.60
2018,11,21,01,51,5.60
2018,11,21,01,52,5.60
2018,11,21,01,53,5.60
2018,11,21,01,54,5.60
2018,11,21,01,55,5.60
2018,11,21,01,56,5.60
2018,11,21,01,57,5.60
2018,11,21,01,58,5.60
2018,11,21,01,59,5.60
2018,11,21,02,00,5.60
2018,11,21,02,01,5.60
2018,11,21,02,02,5.60
2018,11,21,02,03,5.60
2018,11,21,02,04,5.60
2018,11,21,02,05,5.60
2018,11,21,02,06,5.60
2018,11,21,02,07,5.60
2018,11,21,02,08,5.60
2018,11,21,02,09,5.60
2018,11,21,02,10,5.60
2018,11,21,02,11,5.60
2018,11,21,02,12,5.60
2018,11,21,02,13,5.60
2018,11,21,02,14,5.60
2018,11,21,02,15,5.60
2018,11,21,02,16,5.60
2018,11,21,02,17,5.60
2018,11,21,02,18,5.60
2018,11,21,02,19,5.60
2018,11,21,02,20,5.70
2018,11,21,02,21,5.70
2018,11,21,02,22,5.70
2018,11,21,02,23,5.70
2018,11,21,02,24,5.70
2018,11,21,02,25,5.70
2018,11,21,02,26,5.70
2018,11,21,02,27,5.80
2018,11,21,02,28,5.80
2018,11,21,02,29,5.80
2018,11,21,02,30,5.80
2018,11,21,02,31,5.80
2018,11,21,02,32,5.80
2018,11,21,02,33,5.90
2018,11,21,02,34,5.90
2018,11,21,02,35,5.90
2018,11,21,02,36,6.00
2018,11,21,02,37,6.00
2018,11,21,02,38,6.00
2018,11,21,02,39,6.00
2018,11,21,02,40,6.00
2018,11,21,02,41,6.10
2018,11,21,02,42,6.10
2018,11,21,02,43,6.10
2018,11,21,02,44,6.10
2018,11,21,02,45,6.10
2018,11,21,02,46,6.10
2018,11,21,02,47,6.10
2018,11,21,02,48,6.10
2018,11,21,02,49,6.20
2018,11,21,02,50,6.20
2018,11,21,02,51,6.20
2018,11,21,02,52,6.20
2018,11,21,02,53,6.30
2018,11,21,02,54,6.30
2018,11,21,02,55,6.40
2018,11,21,02,56,6.40
2018,11,21,02,57,6.50
2018,11,21,02,58,6.60
2018,11,21,02,59,6.60
2018,11,21,03,00,6.70
2018,11,21,03,01,6.70
2018,11,21,03,02,6.70
2018,11,21,03,06,6.80
2018,11,21,03,07,6.90
2018,11,21,03,08,6.90
2018,11,21,03,09,6.90
2018,11,21,03,10,6.90
2018,11,21,03,11,6.90
2018,11,21,03,12,6.90
2018,11,21,03,13,6.90
2018,11,21,03,14,7.00
2018,11,21,03,15,7.00
2018,11,21,03,16,7.10
2018,11,21,03,17,7.10
2018,11,21,03,18,7.20
2018,11,21,03,19,7.20
2018,11,21,03,20,7.20
2018,11,21,03,21,7.30
2018,11,21,03,22,7.30
2018,11,21,03,23,7.40
2018,11,21,03,24,7.40
2018,11,21,03,25,7.40
2018,11,21,03,26,7.40
2018,11,21,03,27,7.50
2018,11,21,03,28,7.50
2018,11,21,03,29,7.50
2018,11,21,03,30,7.50
2018,11,21,03,31,7.60
2018,11,21,03,32,7.60
2018,11,21,03,33,7.60
2018,11,21,03,34,7.60
2018,11,21,03,35,7.60
2018,11,21,03,36,7.60
2018,11,21,03,37,7.50
2018,11,21,03,38,7.50
2018,11,21,03,39,7.40
2018,11,21,03,40,7.40
2018,11,21,03,41,7.40
2018,11,21,03,42,7.40
2018,11,21,03,43,7.40
2018,11,21,03,44,7.40
2018,11,21,03,45,7.40
2018,11,21,03,46,7.40
2018,11,21,03,47,7.40
2018,11,21,03,48,7.40
2018,11,21,03,49,7.40
2018,11,21,03,50,7.40
2018,11,21,03,51,7.40
2018,11,21,03,52,7.40
2018,11,21,03,53,7.40
2018,11,21,03,54,7.40
2018,11,21,03,55,7.40
2018,11,21,03,56,7.40
2018,11,21,03,57,7.40
2018,11,21,03,58,7.50
2018,11,21,03,59,7.50
2018,11,21,04,00,7.50
2018,11,21,04,01,7.60
2018,11,21,04,02,7.60
2018,11,21,04,03,7.60
2018,11,21,04,04,7.60
2018,11,21,04,05,7.60
2018,11,21,04,06,7.60
2018,11,21,04,07,7.60
2018,11,21,04,08,7.70
2018,11,21,04,09,7.60
2018,11,21,04,10,7.60
2018,11,21,04,11,7.60
2018,11,21,04,12,7.60
2018,11,21,04,13,7.50
2018,11,21,04,14,7.50
2018,11,21,04,15,7.40
2018,11,21,04,16,7.40
2018,11,21,04,17,7.40
2018,11,21,04,18,7.30
2018,11,21,04,19,7.30
2018,11,21,04,20,7.20
2018,11,21,04,21,7.20
2018,11,21,04,22,7.20
2018,11,21,04,23,7.20
2018,11,21,04,24,7.20
2018,11,21,04,25,7.10
2018,11,21,04,26,7.10
2018,11,21,04,27,7.10
2018,11,21,04,28,7.10
2018,11,21,04,29,7.10
2018,11,21,04,30,7.00
2018,11,21,04,31,7.00
2018,11,21,04,32,7.00
2018,11,21,04,33,6.90
2018,11,21,04,34,6.90
2018,11,21,04,35,6.90
2018,11,21,04,36,6.90
2018,11,21,04,37,6.90
2018,11,21,04,38,6.90
2018,11,21,04,39,6.90
2018,11,21,04,40,6.90
2018,11,21,04,41,6.90
2018,11,21,04,42,6.90
2018,11,21,04,43,6.90
2018,11,21,04,44,6.80
2018,11,21,04,45,6.80
2018,11,21,04,46,6.80
2018,11,21,04,47,6.80
2018,11,21,04,48,6.80
2018,11,21,04,49,6.80
2018,11,21,04,50,6.80
2018,11,21,04,51,6.80
2018,11,21,04,52,6.80
2018,11,21,04,53,6.80
2018,11,21,04,54,6.80
2018,11,21,04,55,6.80
2018,11,21,04,56,6.80
2018,11,21,04,57,6.80
2018,11,21,04,58,6.80
2018,11,21,04,59,6.80
2018,11,21,05,00,6.80
2018,11,21,05,01,6.80
2018,11,21,05,02,6.80
2018,11,21,05,03,6.80
2018,11,21,05,04,6.80
2018,11,21,05,05,6.80
2018,11,21,05,06,6.80
2018,11,21,05,07,6.80
2018,11,21,05,08,6.80
2018,11,21,05,09,6.80
2018,11,21,05,10,6.80
2018,11,21,05,11,6.80
2018,11,21,05,12,6.70
2018,11,21,05,13,6.70
2018,11,21,05,14,6.70
2018,11,21,05,15,6.70
2018,11,21,05,16,6.70
2018,11,21,05,17,6.70
2018,11,21,05,18,6.70
2018,11,21,05,19,6.70
2018,11,21,05,20,6.70
2018,11,21,05,21,6.70
2018,11,21,05,22,6.70
2018,11,21,05,23,6.70
2018,11,21,05,24,6.70
2018,11,21,05,25,6.60
2018,11,21,05,26,6.70
2018,11,21,05,27,6.60
2018,11,21,05,28,6.60
2018,11,21,05,29,6.60
2018,11,21,05,30,6.60
2018,11,21,05,31,6.60
2018,11,21,05,32,6.60
2018,11,21,05,33,6.60
2018,11,21,05,34,6.60
2018,11,21,05,35,6.60
2018,11,21,05,36,6.60
2018,11,21,05,37,6.60
2018,11,21,05,38,6.60
2018,11,21,05,39,6.60
2018,11,21,05,40,6.60
2018,11,21,05,41,6.60
2018,11,21,05,42,6.60
2018,11,21,05,43,6.60
2018,11,21,05,44,6.50
2018,11,21,05,45,6.50
2018,11,21,05,46,6.50
2018,11,21,05,47,6.50
2018,11,21,05,48,6.50
2018,11,21,05,49,6.50
2018,11,21,05,50,6.50
2018,11,21,05,51,6.40
2018,11,21,05,52,6.40
2018,11,21,05,53,6.40
2018,11,21,05,54,6.40
2018,11,21,05,55,6.40
2018,11,21,05,56,6.40
2018,11,21,05,57,6.40
2018,11,21,05,58,6.40
2018,11,21,05,59,6.40
2018,11,21,06,00,6.40
2018,11,21,06,01,6.40
2018,11,21,06,02,6.40
2018,11,21,06,03,6.40
2018,11,21,06,04,6.40
2018,11,21,06,05,6.40
2018,11,21,06,06,6.40
2018,11,21,06,07,6.40
2018,11,21,06,08,6.40
2018,11,21,06,09,6.40
2018,11,21,06,10,6.40
2018,11,21,06,11,6.40
2018,11,21,06,12,6.40
2018,11,21,06,13,6.40
2018,11,21,06,14,6.40
2018,11,21,06,15,6.40
2018,11,21,06,16,6.40
2018,11,21,06,17,6.40
2018,11,21,06,18,6.40
2018,11,21,06,19,6.40
2018,11,21,06,20,6.40
2018,11,21,06,21,6.40
2018,11,21,06,22,6.40
2018,11,21,06,23,6.40
2018,11,21,06,24,6.40
2018,11,21,06,25,6.40
2018,11,21,06,26,6.40
2018,11,21,06,27,6.40
2018,11,21,06,28,6.40
2018,11,21,06,29,6.40
2018,11,21,06,30,6.40
2018,11,21,06,31,6.40
2018,11,21,06,32,6.40
2018,11,21,06,33,6.40
2018,11,21,06,34,6.40
2018,11,21,06,35,6.40
2018,11,21,06,36,6.40
2018,11,21,06,37,6.40
2018,11,21,06,38,6.40
2018,11,21,06,39,6.40
2018,11,21,06,40,6.40
2018,11,21,06,41,6.30
2018,11,21,06,42,6.30
2018,11,21,06,43,6.30
2018,11,21,06,44,6.30
2018,11,21,06,45,6.30
2018,11,21,06,46,6.30
2018,11,21,06,47,6.30
2018,11,21,06,48,6.30
2018,11,21,06,49,6.30
2018,11,21,06,50,6.30
2018,11,21,06,51,6.30
2018,11,21,06,52,6.30
2018,11,21,06,53,6.30
2018,11,21,06,54,6.30
2018,11,21,06,55,6.30
2018,11,21,06,56,6.30
2018,11,21,06,57,6.30
2018,11,21,06,58,6.30
2018,11,21,06,59,6.30
2018,11,21,07,00,6.30
2018,11,21,07,01,6.30
2018,11,21,07,02,6.30
2018,11,21,07,03,6.30
2018,11,21,07,04,6.30
2018,11,21,07,05,6.30
2018,11,21,07,06,6.30
2018,11,21,07,07,6.30
2018,11,21,07,08,6.30
2018,11,21,07,09,6.30
2018,11,21,07,10,6.30
2018,11,21,07,11,6.40
2018,11,21,07,12,6.40
2018,11,21,07,13,6.40
2018,11,21,07,14,6.40
2018,11,21,07,15,6.40
2018,11,21,07,16,6.50
2018,11,21,07,17,6.50
2018,11,21,07,18,6.60
2018,11,21,07,19,6.60
2018,11,21,07,20,6.60
2018,11,21,07,21,6.70
2018,11,21,07,22,6.70
2018,11,21,07,23,6.70
2018,11,21,07,24,6.70
2018,11,21,07,25,6.70
2018,11,21,07,26,6.80
2018,11,21,07,27,6.80
2018,11,21,07,28,6.80
2018,11,21,07,29,6.80
2018,11,21,07,30,6.80
2018,11,21,07,31,6.80
2018,11,21,07,32,6.80
2018,11,21,07,33,6.90
2018,11,21,07,34,6.90
2018,11,21,07,35,6.90
2018,11,21,07,36,6.80
2018,11,21,07,37,6.80
2018,11,21,07,38,6.80
2018,11,21,07,39,6.80
2018,11,21,07,40,6.80
2018,11,21,07,41,6.80
2018,11,21,07,42,6.80
2018,11,21,07,43,6.80
2018,11,21,07,44,6.70
2018,11,21,07,45,6.70
2018,11,21,07,46,6.70
2018,11,21,07,47,6.70
2018,11,21,07,48,6.70
2018,11,21,07,49,6.70
2018,11,21,07,50,6.70
2018,11,21,07,51,6.70
2018,11,21,07,52,6.60
2018,11,21,07,53,6.60
2018,11,21,07,54,6.60
2018,11,21,07,55,6.60
2018,11,21,07,56,6.60
2018,11,21,07,57,6.60
2018,11,21,07,58,6.60
2018,11,21,07,59,6.50
2018,11,21,08,00,6.50
2018,11,21,08,01,6.50
2018,11,21,08,02,6.50
2018,11,21,08,03,6.50
2018,11,21,08,04,6.40
2018,11,21,08,05,6.40
2018,11,21,08,06,6.40
2018,11,21,08,07,6.40
2018,11,21,08,08,6.40
2018,11,21,08,09,6.40
2018,11,21,08,10,6.40
2018,11,21,08,11,6.40
2018,11,21,08,12,6.40
2018,11,21,08,13,6.40
2018,11,21,08,14,6.40
2018,11,21,08,15,6.40
2018,11,21,08,16,6.40
2018,11,21,08,17,6.40
2018,11,21,08,18,6.40
2018,11,21,08,19,6.40
2018,11,21,08,20,6.40
2018,11,21,08,21,6.40
2018,11,21,08,22,6.40
2018,11,21,08,23,6.40
2018,11,21,08,24,6.40
2018,11,21,08,25,6.40
2018,11,21,08,26,6.40
2018,11,21,08,27,6.40
2018,11,21,08,28,6.40
2018,11,21,08,29,6.40
2018,11,21,08,30,6.40
2018,11,21,08,31,6.50
2018,11,21,08,32,6.50
2018,11,21,08,33,6.50
2018,11,21,08,34,6.50
2018,11,21,08,35,6.50
2018,11,21,08,36,6.50
2018,11,21,08,37,6.50
2018,11,21,08,38,6.50
2018,11,21,08,39,6.50
2018,11,21,08,40,6.50
2018,11,21,08,41,6.50
2018,11,21,08,42,6.50
2018,11,21,08,43,6.50
2018,11,21,08,44,6.50
2018,11,21,08,45,6.50
2018,11,21,08,46,6.50
2018,11,21,08,47,6.50
2018,11,21,08,48,6.50
2018,11,21,08,49,6.60
2018,11,21,08,50,6.60
2018,11,21,08,51,6.60
2018,11,21,08,52,6.60
2018,11,21,08,53,6.60
2018,11,21,08,54,6.60
2018,11,21,08,55,6.60
2018,11,21,08,56,6.60
2018,11,21,08,57,6.70
2018,11,21,08,58,6.70
2018,11,21,08,59,6.70
2018,11,21,09,00,6.70
2018,11,21,09,01,6.70
2018,11,21,09,02,6.70
2018,11,21,09,03,6.70
2018,11,21,09,04,6.70
2018,11,21,09,05,6.70
2018,11,21,09,06,6.70
2018,11,21,09,07,6.70
2018,11,21,09,08,6.70
2018,11,21,09,09,6.70
2018,11,21,09,10,6.70
2018,11,21,09,11,6.70
2018,11,21,09,12,6.70
2018,11,21,09,13,6.70
2018,11,21,09,14,6.80
2018,11,21,09,15,6.80
2018,11,21,09,16,6.80
2018,11,21,09,17,6.80
2018,11,21,09,18,6.80
2018,11,21,09,19,6.80
2018,11,21,09,20,6.80
2018,11,21,09,21,6.80
2018,11,21,09,22,6.80
2018,11,21,09,23,6.90
2018,11,21,09,24,6.90
2018,11,21,09,25,6.90
2018,11,21,09,26,6.90
2018,11,21,09,27,6.90
2018,11,21,09,28,6.90
2018,11,21,09,29,6.90
2018,11,21,09,30,7.00
2018,11,21,09,31,7.00
2018,11,21,09,32,7.00
2018,11,21,09,33,7.00
2018,11,21,09,34,7.00
2018,11,21,09,35,7.00
2018,11,21,09,36,7.00
2018,11,21,09,37,7.00
2018,11,21,09,38,7.00
2018,11,21,09,39,7.00
2018,11,21,09,40,7.00
2018,11,21,09,41,7.00
2018,11,21,09,42,7.00
2018,11,21,09,43,7.10
2018,11,21,09,44,7.10
2018,11,21,09,45,7.10
2018,11,21,09,46,7.10
2018,11,21,09,47,7.10
2018,11,21,09,48,7.10
2018,11,21,09,49,7.10
2018,11,21,09,50,7.10
2018,11,21,09,51,7.10
2018,11,21,09,52,7.10
2018,11,21,09,53,7.10
2018,11,21,09,54,7.10
2018,11,21,09,55,7.10
2018,11,21,09,56,7.10
2018,11,21,09,57,7.10
2018,11,21,09,58,7.10
2018,11,21,09,59,7.20
2018,11,21,10,00,7.20
2018,11,21,10,01,7.20
2018,11,21,10,02,7.20
2018,11,21,10,03,7.20
2018,11,21,10,04,7.20
2018,11,21,10,05,7.30
2018,11,21,10,06,7.30
2018,11,21,10,07,7.30
2018,11,21,10,08,7.30
2018,11,21,10,09,7.30
2018,11,21,10,10,7.40
2018,11,21,10,11,7.40
2018,11,21,10,12,7.40
2018,11,21,10,13,7.50
2018,11,21,10,14,7.50
2018,11,21,10,15,7.50
2018,11,21,10,16,7.50
2018,11,21,10,17,7.50
2018,11,21,10,18,7.60
2018,11,21,10,19,7.60
2018,11,21,10,20,7.60
2018,11,21,10,21,7.60
2018,11,21,10,22,7.60
2018,11,21,10,23,7.60
2018,11,21,10,24,7.60
2018,11,21,10,25,7.60
2018,11,21,10,26,7.70
2018,11,21,10,27,7.70
2018,11,21,10,28,7.70
2018,11,21,10,29,7.70
2018,11,21,10,30,7.70
2018,11,21,10,31,7.70
2018,11,21,10,32,7.70
2018,11,21,10,33,7.70
2018,11,21,10,34,7.70
2018,11,21,10,35,7.70
2018,11,21,10,36,7.80
2018,11,21,10,37,7.80
2018,11,21,10,38,7.80
2018,11,21,10,39,7.80
2018,11,21,10,40,7.80
2018,11,21,10,41,7.80
2018,11,21,10,42,7.80
2018,11,21,10,43,7.80
2018,11,21,10,44,7.80
2018,11,21,10,45,7.80
2018,11,21,10,46,7.80
2018,11,21,10,47,7.80
2018,11,21,10,48,7.80
2018,11,21,10,49,7.80
2018,11,21,10,50,7.80
2018,11,21,10,51,7.80
2018,11,21,10,52,7.80
2018,11,21,10,53,7.80
2018,11,21,10,54,7.80
2018,11,21,10,55,7.80
2018,11,21,10,56,7.80
2018,11,21,10,57,7.80
2018,11,21,10,58,7.80
2018,11,21,10,59,7.80
2018,11,21,11,00,7.80
2018,11,21,11,01,7.90
2018,11,21,11,02,7.90
2018,11,21,11,03,7.90
2018,11,21,11,04,7.90
2018,11,21,11,05,7.90
2018,11,21,11,06,7.90
2018,11,21,11,07,7.90
2018,11,21,11,08,7.90
2018,11,21,11,09,7.90
2018,11,21,11,10,7.90
2018,11,21,11,11,7.90
2018,11,21,11,12,7.90
2018,11,21,11,13,7.90
2018,11,21,11,14,7.90
2018,11,21,11,15,7.90
2018,11,21,11,16,7.90
2018,11,21,11,17,7.90
2018,11,21,11,18,7.90
2018,11,21,11,19,7.90
2018,11,21,11,20,7.90
2018,11,21,11,21,7.90
2018,11,21,11,22,7.90
2018,11,21,11,23,7.90
2018,11,21,11,24,8.00
2018,11,21,11,25,8.00
2018,11,21,11,26,8.10
2018,11,21,11,27,8.10
2018,11,21,11,28,8.10
2018,11,21,11,29,8.10
2018,11,21,11,30,8.10
2018,11,21,11,31,8.10
2018,11,21,11,32,8.20
2018,11,21,11,33,8.20
2018,11,21,11,34,8.20
2018,11,21,11,35,8.20
2018,11,21,11,36,8.20
2018,11,21,11,37,8.20
2018,11,21,11,38,8.20
2018,11,21,11,39,8.20
2018,11,21,11,40,8.20
2018,11,21,11,41,8.20
2018,11,21,11,42,8.20
2018,11,21,11,43,8.20
2018,11,21,11,44,8.20
2018,11,21,11,45,8.20
2018,11,21,11,46,8.20
2018,11,21,11,47,8.30
2018,11,21,11,48,8.30
2018,11,21,11,49,8.30
2018,11,21,11,50,8.30
2018,11,21,11,51,8.30
2018,11,21,11,52,8.30
2018,11,21,11,53,8.30
2018,11,21,11,54,8.30
2018,11,21,11,55,8.30
2018,11,21,11,56,8.30
2018,11,21,11,57,8.30
2018,11,21,11,58,8.30
2018,11,21,11,59,8.30
2018,11,21,12,00,8.40
2018,11,21,12,01,8.40
2018,11,21,12,02,8.40
2018,11,21,12,03,8.40
2018,11,21,12,04,8.40
2018,11,21,12,05,8.40
2018,11,21,12,06,8.50
2018,11,21,12,07,8.50
2018,11,21,12,08,8.50
2018,11,21,12,09,8.50
2018,11,21,12,10,8.50
2018,11,21,12,11,8.50
2018,11,21,12,12,8.50
2018,11,21,12,13,8.50
2018,11,21,12,14,8.60
2018,11,21,12,15,8.60
2018,11,21,12,16,8.60
2018,11,21,12,17,8.60
2018,11,21,12,18,8.60
2018,11,21,12,19,8.60
2018,11,21,12,20,8.60
2018,11,21,12,21,8.60
2018,11,21,12,22,8.60
2018,11,21,12,23,8.60
2018,11,21,12,24,8.60
2018,11,21,12,25,8.60
2018,11,21,12,26,8.60
2018,11,21,12,27,8.60
2018,11,21,12,28,8.70
2018,11,21,12,29,8.70
2018,11,21,12,30,8.70
2018,11,21,12,31,8.70
2018,11,21,12,32,8.70
2018,11,21,12,33,8.70
2018,11,21,12,34,8.70
2018,11,21,12,35,8.70
2018,11,21,12,36,8.70
2018,11,21,12,37,8.70
2018,11,21,12,38,8.70
2018,11,21,12,39,8.70
2018,11,21,12,40,8.60
2018,11,21,12,41,8.60
2018,11,21,12,42,8.60
2018,11,21,12,43,8.60
2018,11,21,12,44,8.60
2018,11,21,12,45,8.60
2018,11,21,12,46,8.60
2018,11,21,12,47,8.60
2018,11,21,12,48,8.60
2018,11,21,12,49,8.60
2018,11,21,12,50,8.60
2018,11,21,12,51,8.60
2018,11,21,12,52,8.60
2018,11,21,12,53,8.60
2018,11,21,12,54,8.60
2018,11,21,12,55,8.60
2018,11,21,12,56,8.60
2018,11,21,12,57,8.60
2018,11,21,12,58,8.60
2018,11,21,12,59,8.60
2018,11,21,13,00,8.60
2018,11,21,13,01,8.60
2018,11,21,13,02,8.60
2018,11,21,13,03,8.60
2018,11,21,13,04,8.60
2018,11,21,13,05,8.60
2018,11,21,13,06,8.60
2018,11,21,13,07,8.60
2018,11,21,13,08,8.60
2018,11,21,13,09,8.60
2018,11,21,13,10,8.60
2018,11,21,13,11,8.60
2018,11,21,13,12,8.60
2018,11,21,13,13,8.60
2018,11,21,13,14,8.70
2018,11,21,13,15,8.70
2018,11,21,13,16,8.70
2018,11,21,13,17,8.70
2018,11,21,13,18,8.70
2018,11,21,13,19,8.70
2018,11,21,13,20,8.70
2018,11,21,13,21,8.70
2018,11,21,13,22,8.70
2018,11,21,13,23,8.70
2018,11,21,13,24,8.70
2018,11,21,13,25,8.80
2018,11,21,13,26,8.80
2018,11,21,13,27,8.80
2018,11,21,13,28,8.80
2018,11,21,13,29,8.80
2018,11,21,13,30,8.80
2018,11,21,13,31,8.80
2018,11,21,13,32,8.80
2018,11,21,13,33,8.80
2018,11,21,13,34,8.80
2018,11,21,13,35,8.80
2018,11,21,13,36,8.80
2018,11,21,13,37,8.80
2018,11,21,13,38,8.80
2018,11,21,13,39,8.80
2018,11,21,13,40,8.80
2018,11,21,13,41,8.80
2018,11,21,13,42,8.80
2018,11,21,13,43,8.80
2018,11,21,13,44,8.80
2018,11,21,13,45,8.80
2018,11,21,13,46,8.80
2018,11,21,13,47,8.80
2018,11,21,13,48,8.80
2018,11,21,13,49,8.80
2018,11,21,13,50,8.80
2018,11,21,13,51,8.90
2018,11,21,13,52,8.90
2018,11,21,13,53,8.90
2018,11,21,13,54,8.90
2018,11,21,13,55,8.90
2018,11,21,13,56,8.90
2018,11,21,13,57,8.90
2018,11,21,13,58,8.90
2018,11,21,13,59,8.90
2018,11,21,14,00,8.90
2018,11,21,14,01,8.90
2018,11,21,14,02,8.90
2018,11,21,14,03,9.00
2018,11,21,14,04,8.90
2018,11,21,14,05,8.90
2018,11,21,14,06,8.90
2018,11,21,14,07,8.90
2018,11,21,14,08,8.90
2018,11,21,14,09,8.90
2018,11,21,14,10,8.90
2018,11,21,14,11,8.90
2018,11,21,14,12,8.90
2018,11,21,14,13,8.90
2018,11,21,14,14,8.90
2018,11,21,14,15,8.90
2018,11,21,14,16,8.90
2018,11,21,14,17,8.90
2018,11,21,14,18,8.90
2018,11,21,14,19,9.00
2018,11,21,14,20,9.00
2018,11,21,14,21,9.00
2018,11,21,14,22,9.00
2018,11,21,14,23,9.10
2018,11,21,14,24,9.10
2018,11,21,14,25,9.10
2018,11,21,14,26,9.20
2018,11,21,14,27,9.20
2018,11,21,14,28,9.20
2018,11,21,14,29,9.30
2018,11,21,14,30,9.30
2018,11,21,14,31,9.30
2018,11,21,14,32,9.30
2018,11,21,14,33,9.40
2018,11,21,14,34,9.40
2018,11,21,14,35,9.40
2018,11,21,14,36,9.40
2018,11,21,14,37,9.40
2018,11,21,14,38,9.40
2018,11,21,14,39,9.50
2018,11,21,14,40,9.50
2018,11,21,14,41,9.50
2018,11,21,14,42,9.50
2018,11,21,14,43,9.60
2018,11,21,14,44,9.60
2018,11,21,14,45,9.60
2018,11,21,14,46,9.60
2018,11,21,14,47,9.60
2018,11,21,14,48,9.60
2018,11,21,14,49,9.60
2018,11,21,14,50,9.60
2018,11,21,14,51,9.60
2018,11,21,14,52,9.60
2018,11,21,14,53,9.60
2018,11,21,14,54,9.60
2018,11,21,14,55,9.60
2018,11,21,14,56,9.70
2018,11,21,14,57,9.70
2018,11,21,14,58,9.70
2018,11,21,14,59,9.70
2018,11,21,15,00,9.70
2018,11,21,15,01,9.70
2018,11,21,15,02,9.70
2018,11,21,15,03,9.70
2018,11,21,15,04,9.70
2018,11,21,15,05,9.70
2018,11,21,15,06,9.70
2018,11,21,15,07,9.70
2018,11,21,15,08,9.70
2018,11,21,15,09,9.70
2018,11,21,15,10,9.70
2018,11,21,15,11,9.70
2018,11,21,15,12,9.70
2018,11,21,15,13,9.70
2018,11,21,15,14,9.70
2018,11,21,15,15,9.70
2018,11,21,15,16,9.70
2018,11,21,15,17,9.80
2018,11,21,15,18,9.80
2018,11,21,15,19,9.80
2018,11,21,15,20,9.80
2018,11,21,15,21,9.80
2018,11,21,15,22,9.80
2018,11,21,15,23,9.70
2018,11,21,15,24,9.70
2018,11,21,15,25,9.70
2018,11,21,15,26,9.70
2018,11,21,15,27,9.70
2018,11,21,15,28,9.70
2018,11,21,15,29,9.70
2018,11,21,15,30,9.70
2018,11,21,15,31,9.70
2018,11,21,15,32,9.70
2018,11,21,15,33,9.70
2018,11,21,15,34,9.70
2018,11,21,15,35,9.70
2018,11,21,15,36,9.70
2018,11,21,15,37,9.70
2018,11,21,15,38,9.70
2018,11,21,15,39,9.70
2018,11,21,15,40,9.70
2018,11,21,15,41,9.70
2018,11,21,15,42,9.70
2018,11,21,15,43,9.70
2018,11,21,15,44,9.70
2018,11,21,15,45,9.70
2018,11,21,15,46,9.70
2018,11,21,15,47,9.70
2018,11,21,15,48,9.70
2018,11,21,15,49,9.70
2018,11,21,15,50,9.70
2018,11,21,15,51,9.70
2018,11,21,15,52,9.70
2018,11,21,15,53,9.70
2018,11,21,15,54,9.70
2018,11,21,15,55,9.70
2018,11,21,15,56,9.70
2018,11,21,15,57,9.70
2018,11,21,15,58,9.70
2018,11,21,15,59,9.70
2018,11,21,16,00,9.70
2018,11,21,16,01,9.70
2018,11,21,16,02,9.70
2018,11,21,16,03,9.70
2018,11,21,16,04,9.60
2018,11,21,16,05,9.60
2018,11,21,16,06,9.60
2018,11,21,16,07,9.60
2018,11,21,16,08,9.60
2018,11,21,16,09,9.60
2018,11,21,16,10,9.60
2018,11,21,16,11,9.60
2018,11,21,16,12,9.60
2018,11,21,16,13,9.60
2018,11,21,16,14,9.60
2018,11,21,16,15,9.60
2018,11,21,16,16,9.50
2018,11,21,16,17,9.50
2018,11,21,16,18,9.50
2018,11,21,16,19,9.50
2018,11,21,16,20,9.50
2018,11,21,16,21,9.50
2018,11,21,16,22,9.50
2018,11,21,16,23,9.50
2018,11,21,16,24,9.40
2018,11,21,16,25,9.40
2018,11,21,16,26,9.40
2018,11,21,16,27,9.40
2018,11,21,16,28,9.40
2018,11,21,16,29,9.40
2018,11,21,16,30,9.40
2018,11,21,16,31,9.40
2018,11,21,16,32,9.40
2018,11,21,16,33,9.40
2018,11,21,16,34,9.40
2018,11,21,16,35,9.40
2018,11,21,16,36,9.40
2018,11,21,16,37,9.40
2018,11,21,16,38,9.40
2018,11,21,16,39,9.40
2018,11,21,16,40,9.40
2018,11,21,16,41,9.40
2018,11,21,16,42,9.40
2018,11,21,16,43,9.40
2018,11,21,16,44,9.40
2018,11,21,16,45,9.40
2018,11,21,16,46,9.40
2018,11,21,16,47,9.40
2018,11,21,16,48,9.40
2018,11,21,16,49,9.30
2018,11,21,16,50,9.30
2018,11,21,16,51,9.30
2018,11,21,16,52,9.30
2018,11,21,16,53,9.30
2018,11,21,16,54,9.30
2018,11,21,16,55,9.30
2018,11,21,16,56,9.30
2018,11,21,16,57,9.30
2018,11,21,16,58,9.30
2018,11,21,16,59,9.30
2018,11,21,17,00,9.30
2018,11,21,17,01,9.30
2018,11,21,17,02,9.30
2018,11,21,17,03,9.20
2018,11,21,17,04,9.20
2018,11,21,17,05,9.20
2018,11,21,17,06,9.20
2018,11,21,17,07,9.20
2018,11,21,17,08,9.20
2018,11,21,17,09,9.20
2018,11,21,17,10,9.20
2018,11,21,17,11,9.20
2018,11,21,17,12,9.20
2018,11,21,17,13,9.20
2018,11,21,17,14,9.20
2018,11,21,17,15,9.20
2018,11,21,17,16,9.20
2018,11,21,17,17,9.20
2018,11,21,17,18,9.20
2018,11,21,17,19,9.20
2018,11,21,17,20,9.20
2018,11,21,17,21,9.20
2018,11,21,17,22,9.20
2018,11,21,17,23,9.10
2018,11,21,17,24,9.20
2018,11,21,17,25,9.20
2018,11,21,17,26,9.20
2018,11,21,17,27,9.20
2018,11,21,17,28,9.10
2018,11,21,17,29,9.10
2018,11,21,17,30,9.10
2018,11,21,17,31,9.10
2018,11,21,17,32,9.10
2018,11,21,17,33,9.10
2018,11,21,17,34,9.10
2018,11,21,17,35,9.10
2018,11,21,17,36,9.10
2018,11,21,17,37,9.10
2018,11,21,17,38,9.10
2018,11,21,17,39,9.10
2018,11,21,17,40,9.10
2018,11,21,17,41,9.10
2018,11,21,17,42,9.10
2018,11,21,17,43,9.10
2018,11,21,17,44,9.10
2018,11,21,17,45,9.10
2018,11,21,17,46,9.10
2018,11,21,17,47,9.10
2018,11,21,17,48,9.10
2018,11,21,17,49,9.10
2018,11,21,17,50,9.10
2018,11,21,17,51,9.10
2018,11,21,17,52,9.10
2018,11,21,17,53,9.10
2018,11,21,17,54,9.10
2018,11,21,17,55,9.10
2018,11,21,17,56,9.10
2018,11,21,17,57,9.10
2018,11,21,17,58,9.10
2018,11,21,17,59,9.10
2018,11,21,18,00,9.10
2018,11,21,18,01,9.10
2018,11,21,18,02,9.10
2018,11,21,18,03,9.10
2018,11,21,18,04,9.10
2018,11,21,18,05,9.10
2018,11,21,18,06,9.10
2018,11,21,18,07,9.10
2018,11,21,18,08,9.10
2018,11,21,18,09,9.10